Time,TemperatureF,DewpointF,PressureIn,WindDirection,WindDirectionDegrees,WindSpeedMPH,WindSpeedGustMPH,Humidity,HourlyPrecipIn,Conditions,Clouds,dailyrainin,SoftwareType,DateUTC
2013-08-08 00:00:00,59.2,55.6,30.05,West,277,3.0,10.0,88,0.00,,,-99.99,Weather View 32 v60,2013-08-08 07:00:00,
2013-08-08 00:10:00,59.2,55.6,30.05,SW,229,4.0,10.0,88,0.00,,,-99.99,Weather View 32 v60,2013-08-08 07:10:00,
2013-08-08 00:20:00,59.2,55.9,30.05,SW,234,4.0,10.0,89,0.00,,,-99.99,Weather View 32 v60,2013-08-08 07:20:00,
2013-08-08 00:30:00,59.0,55.8,30.05,WSW,238,0.0,10.0,89,0.00,,,-99.99,Weather View 32 v60,2013-08-08 07:30:00,
2013-08-08 00:40:00,59.0,55.8,30.05,SSW,196,3.0,10.0,89,0.00,,,-99.99,Weather View 32 v60,2013-08-08 07:40:00,
2013-08-08 00:50:00,59.0,56.1,30.05,SW,236,6.0,10.0,90,0.00,,,-99.99,Weather View 32 v60,2013-08-08 07:50:00,
2013-08-08 01:00:00,59.0,56.1,30.05,WSW,254,0.0,10.0,90,0.00,,,-99.99,Weather View 32 v60,2013-08-08 08:00:00,
2013-08-08 01:10:00,59.0,56.1,30.05,WSW,249,0.0,10.0,90,0.00,,,-99.99,Weather View 32 v60,2013-08-08 08:10:00,
2013-08-08 01:19:00,59.2,56.2,30.05,NW,313,0.0,10.0,90,0.00,,,-99.99,Weather View 32 v60,2013-08-08 08:19:00,
2013-08-08 01:29:00,59.4,56.4,30.05,WSW,237,0.0,8.0,90,0.00,,,-99.99,Weather View 32 v60,2013-08-08 08:29:00,
2013-08-08 01:39:00,59.5,56.3,30.05,West,267,0.0,8.0,89,0.00,,,-99.99,Weather View 32 v60,2013-08-08 08:39:00,
2013-08-08 01:49:00,59.7,56.5,30.05,West,261,0.0,6.0,89,0.00,,,-99.99,Weather View 32 v60,2013-08-08 08:49:00,
2013-08-08 02:00:00,59.7,56.5,30.05,West,278,0.0,6.0,89,0.00,,,-99.99,Weather View 32 v60,2013-08-08 09:00:00,
2013-08-08 02:10:00,59.7,56.1,30.05,SW,218,0.0,5.0,88,0.00,,,-99.99,Weather View 32 v60,2013-08-08 09:10:00,
2013-08-08 02:19:00,59.7,55.8,30.05,WSW,247,0.0,5.0,87,0.00,,,-99.99,Weather View 32 v60,2013-08-08 09:19:00,
2013-08-08 02:30:00,59.9,56.0,30.02,WNW,301,0.0,5.0,87,0.00,,,-99.99,Weather View 32 v60,2013-08-08 09:30:00,
2013-08-08 02:39:00,59.9,56.0,30.02,SW,230,0.0,4.0,87,0.00,,,-99.99,Weather View 32 v60,2013-08-08 09:39:00,
2013-08-08 02:49:00,59.9,56.0,30.02,SW,216,0.0,0.0,87,0.00,,,-99.99,Weather View 32 v60,2013-08-08 09:49:00,
2013-08-08 02:59:00,59.9,56.0,30.02,WNW,300,0.0,0.0,87,0.00,,,-99.99,Weather View 32 v60,2013-08-08 09:59:00,
2013-08-08 03:09:00,59.9,56.0,30.02,WSW,258,0.0,0.0,87,0.00,,,-99.99,Weather View 32 v60,2013-08-08 10:09:00,
2013-08-08 03:19:00,59.9,56.0,30.02,West,263,0.0,0.0,87,0.00,,,-99.99,Weather View 32 v60,2013-08-08 10:19:00,
2013-08-08 03:29:00,59.9,55.7,30.02,SSW,208,0.0,0.0,86,0.00,,,-99.99,Weather View 32 v60,2013-08-08 10:29:00,
2013-08-08 03:39:00,59.9,55.4,30.02,WNW,295,0.0,0.0,85,0.00,,,-99.99,Weather View 32 v60,2013-08-08 10:39:00,
2013-08-08 03:49:00,59.9,55.4,30.02,WNW,303,0.0,0.0,85,0.00,,,-99.99,Weather View 32 v60,2013-08-08 10:49:00,
2013-08-08 03:59:00,59.9,55.0,30.02,WSW,257,0.0,0.0,84,0.00,,,-99.99,Weather View 32 v60,2013-08-08 10:59:00,
2013-08-08 04:09:00,59.9,55.0,30.02,WSW,246,0.0,0.0,84,0.00,,,-99.99,Weather View 32 v60,2013-08-08 11:09:00,
2013-08-08 04:19:00,59.9,55.0,30.02,SW,232,0.0,4.0,84,0.00,,,-99.99,Weather View 32 v60,2013-08-08 11:19:00,
2013-08-08 04:29:00,59.7,54.9,30.02,WSW,253,0.0,4.0,84,0.00,,,-99.99,Weather View 32 v60,2013-08-08 11:29:00,
2013-08-08 04:39:00,59.7,54.9,30.02,West,268,0.0,4.0,84,0.00,,,-99.99,Weather View 32 v60,2013-08-08 11:39:00,
2013-08-08 04:49:00,59.7,55.2,30.02,West,267,0.0,4.0,85,0.00,,,-99.99,Weather View 32 v60,2013-08-08 11:49:00,
2013-08-08 04:59:00,59.7,55.2,30.02,West,273,0.0,4.0,85,0.00,,,-99.99,Weather View 32 v60,2013-08-08 11:59:00,
2013-08-08 05:09:00,59.7,55.2,29.99,WSW,250,0.0,4.0,85,0.00,,,-99.99,Weather View 32 v60,2013-08-08 12:09:00,
2013-08-08 05:19:00,59.7,54.9,29.99,WSW,256,0.0,4.0,84,0.00,,,-99.99,Weather View 32 v60,2013-08-08 12:19:00,
2013-08-08 05:29:00,59.7,54.9,30.02,SW,233,0.0,0.0,84,0.00,,,-99.99,Weather View 32 v60,2013-08-08 12:29:00,
2013-08-08 05:39:00,59.7,54.9,30.02,WNW,284,0.0,0.0,84,0.00,,,-99.99,Weather View 32 v60,2013-08-08 12:39:00,
2013-08-08 05:49:00,59.7,54.9,30.02,SW,235,0.0,0.0,84,0.00,,,-99.99,Weather View 32 v60,2013-08-08 12:49:00,
2013-08-08 05:59:00,59.9,54.7,30.02,SW,227,0.0,0.0,83,0.00,,,-99.99,Weather View 32 v60,2013-08-08 12:59:00,
2013-08-08 06:09:00,60.1,54.9,30.02,WNW,284,0.0,0.0,83,0.00,,,-99.99,Weather View 32 v60,2013-08-08 13:09:00,
2013-08-08 06:19:00,60.1,54.9,30.02,West,261,0.0,0.0,83,0.00,,,-99.99,Weather View 32 v60,2013-08-08 13:19:00,
2013-08-08 06:29:00,60.3,55.1,30.02,SSW,198,0.0,0.0,83,0.00,,,-99.99,Weather View 32 v60,2013-08-08 13:29:00,
2013-08-08 06:39:00,60.4,54.9,30.02,WSW,246,0.0,0.0,82,0.00,,,-99.99,Weather View 32 v60,2013-08-08 13:39:00,
2013-08-08 06:49:00,60.6,55.1,30.02,SW,228,0.0,0.0,82,0.00,,,-99.99,Weather View 32 v60,2013-08-08 13:49:00,
2013-08-08 06:59:00,60.6,55.1,30.02,SSW,209,0.0,0.0,82,0.00,,,-99.99,Weather View 32 v60,2013-08-08 13:59:00,
2013-08-08 07:09:00,60.8,55.3,30.02,WSW,244,0.0,4.0,82,0.00,,,-99.99,Weather View 32 v60,2013-08-08 14:09:00,
2013-08-08 07:15:00,60.8,55.3,30.02,WSW,244,0.0,4.0,82,0.00,,,-99.99,Weather View 32 v60,2013-08-08 14:15:00,
2013-08-08 07:29:00,61.0,55.4,30.02,WSW,249,0.0,4.0,82,0.00,,,-99.99,Weather View 32 v60,2013-08-08 14:29:00,
2013-08-08 07:39:00,61.0,55.8,30.02,SW,222,0.0,5.0,83,0.00,,,-99.99,Weather View 32 v60,2013-08-08 14:39:00,
2013-08-08 07:49:00,61.0,55.8,30.02,SW,229,0.0,5.0,83,0.00,,,-99.99,Weather View 32 v60,2013-08-08 14:49:00,
2013-08-08 07:59:00,61.2,55.9,30.02,WSW,239,0.0,5.0,83,0.00,,,-99.99,Weather View 32 v60,2013-08-08 14:59:00,
2013-08-08 08:09:00,61.2,55.6,30.02,NNW,336,0.0,5.0,82,0.00,,,-99.99,Weather View 32 v60,2013-08-08 15:09:00,
2013-08-08 08:15:00,61.2,55.6,30.02,NNW,336,0.0,5.0,82,0.00,,,-99.99,Weather View 32 v60,2013-08-08 15:15:00,
2013-08-08 08:29:00,61.3,55.8,30.02,West,270,0.0,5.0,82,0.00,,,-99.99,Weather View 32 v60,2013-08-08 15:29:00,
2013-08-08 08:39:00,61.9,56.0,30.02,WSW,253,0.0,0.0,81,0.00,,,-99.99,Weather View 32 v60,2013-08-08 15:39:00,
2013-08-08 08:49:00,62.1,55.8,30.02,NNW,331,0.0,0.0,80,0.00,,,-99.99,Weather View 32 v60,2013-08-08 15:49:00,
2013-08-08 08:59:00,62.6,56.3,30.02,NW,320,0.0,4.0,80,0.00,,,-99.99,Weather View 32 v60,2013-08-08 15:59:00,
2013-08-08 09:09:00,62.8,55.4,30.02,SW,219,0.0,5.0,77,0.00,,,-99.99,Weather View 32 v60,2013-08-08 16:09:00,
2013-08-08 09:16:00,62.8,55.4,30.02,SW,219,0.0,5.0,77,0.00,,,-99.99,Weather View 32 v60,2013-08-08 16:16:00,
2013-08-08 09:30:00,63.5,55.0,30.02,SW,220,0.0,5.0,74,0.00,,,-99.99,Weather View 32 v60,2013-08-08 16:30:00,
2013-08-08 09:39:00,64.0,54.8,30.02,SW,220,0.0,5.0,72,0.00,,,-99.99,Weather View 32 v60,2013-08-08 16:39:00,
2013-08-08 09:49:00,64.6,54.5,30.02,West,269,3.0,6.0,70,0.00,,,-99.99,Weather View 32 v60,2013-08-08 16:49:00,
2013-08-08 09:59:00,64.6,54.5,30.02,SW,226,0.0,6.0,70,0.00,,,-99.99,Weather View 32 v60,2013-08-08 16:59:00,
2013-08-08 10:09:00,65.5,54.2,30.02,WSW,250,0.0,7.0,67,0.00,,,-99.99,Weather View 32 v60,2013-08-08 17:09:00,
2013-08-08 10:16:00,65.5,54.2,30.02,WSW,250,0.0,7.0,67,0.00,,,-99.99,Weather View 32 v60,2013-08-08 17:16:00,
2013-08-08 10:29:00,68.2,54.2,30.02,NNW,337,0.0,7.0,61,0.00,,,-99.99,Weather View 32 v60,2013-08-08 17:29:00,
2013-08-08 10:39:00,69.1,53.6,30.02,WNW,285,0.0,7.0,58,0.00,,,-99.99,Weather View 32 v60,2013-08-08 17:39:00,
2013-08-08 10:49:00,69.8,52.4,30.02,West,273,0.0,7.0,54,0.00,,,-99.99,Weather View 32 v60,2013-08-08 17:49:00,
2013-08-08 10:59:00,69.8,52.4,30.02,SW,229,0.0,8.0,54,0.00,,,-99.99,Weather View 32 v60,2013-08-08 17:59:00,
2013-08-08 11:09:00,69.8,52.4,30.02,WNW,287,0.0,9.0,54,0.00,,,-99.99,Weather View 32 v60,2013-08-08 18:09:00,
2013-08-08 11:17:00,69.8,52.4,30.02,WNW,287,0.0,9.0,54,0.00,,,-99.99,Weather View 32 v60,2013-08-08 18:17:00,
2013-08-08 11:29:00,70.9,51.8,30.02,SW,228,0.0,9.0,51,0.00,,,-99.99,Weather View 32 v60,2013-08-08 18:29:00,
2013-08-08 11:39:00,71.6,52.5,30.02,North,351,0.0,9.0,51,0.00,,,-99.99,Weather View 32 v60,2013-08-08 18:39:00,
2013-08-08 11:49:00,72.7,51.2,30.02,WSW,258,0.0,9.0,47,0.00,,,-99.99,Weather View 32 v60,2013-08-08 18:49:00,
2013-08-08 11:59:00,73.4,51.9,30.02,WSW,255,0.0,9.0,47,0.00,,,-99.99,Weather View 32 v60,2013-08-08 18:59:00,
2013-08-08 12:09:00,74.3,50.9,30.02,NNW,334,0.0,9.0,44,0.00,,,-99.99,Weather View 32 v60,2013-08-08 19:09:00,
2013-08-08 12:17:00,74.3,50.9,30.02,NNW,334,0.0,9.0,44,0.00,,,-99.99,Weather View 32 v60,2013-08-08 19:17:00,
2013-08-08 12:29:00,75.2,51.1,29.99,WNW,296,0.0,13.0,43,0.00,,,-99.99,Weather View 32 v60,2013-08-08 19:29:00,
2013-08-08 12:39:00,75.7,51.6,29.99,SSW,193,0.0,13.0,43,0.00,,,-99.99,Weather View 32 v60,2013-08-08 19:39:00,
2013-08-08 12:49:00,76.3,50.8,29.99,North,356,9.0,13.0,41,0.00,,,-99.99,Weather View 32 v60,2013-08-08 19:49:00,
2013-08-08 12:59:00,76.8,50.6,29.99,NW,323,0.0,13.0,40,0.00,,,-99.99,Weather View 32 v60,2013-08-08 19:59:00,
2013-08-08 13:09:00,77.4,51.1,29.99,NNW,337,11.0,13.0,40,0.00,,,-99.99,Weather View 32 v60,2013-08-08 20:09:00,
2013-08-08 13:18:00,77.4,51.1,29.99,NNW,337,11.0,13.0,40,0.00,,,-99.99,Weather View 32 v60,2013-08-08 20:18:00,
2013-08-08 13:29:00,78.4,51.4,29.99,South,186,3.0,11.0,39,0.00,,,-99.99,Weather View 32 v60,2013-08-08 20:29:00,
2013-08-08 13:39:00,79.2,49.1,29.99,NW,319,5.0,12.0,35,0.00,,,-99.99,Weather View 32 v60,2013-08-08 20:39:00,
2013-08-08 13:49:00,80.1,49.1,29.99,NNW,329,5.0,12.0,34,0.00,,,-99.99,Weather View 32 v60,2013-08-08 20:49:00,
2013-08-08 13:59:00,80.1,49.9,29.96,WNW,291,0.0,12.0,35,0.00,,,-99.99,Weather View 32 v60,2013-08-08 20:59:00,
2013-08-08 14:19:00,80.2,50.0,29.96,WSW,238,6.0,12.0,35,0.00,,,-99.99,Weather View 32 v60,2013-08-08 21:19:00,
2013-08-08 14:29:00,81.0,50.6,29.96,WSW,258,5.0,12.0,35,0.00,,,-99.99,Weather View 32 v60,2013-08-08 21:29:00,
2013-08-08 14:39:00,80.4,50.2,29.96,SSW,197,0.0,15.0,35,0.00,,,-99.99,Weather View 32 v60,2013-08-08 21:39:00,
2013-08-08 14:52:00,80.4,50.2,29.96,SSW,197,0.0,15.0,35,0.00,,,-99.99,Weather View 32 v60,2013-08-08 21:52:00,
2013-08-08 14:59:00,78.8,50.2,29.96,NW,314,3.0,15.0,37,0.00,,,-99.99,Weather View 32 v60,2013-08-08 21:59:00,
2013-08-08 15:09:00,78.4,51.4,29.96,NNW,334,6.0,15.0,39,0.00,,,-99.99,Weather View 32 v60,2013-08-08 22:09:00,
2013-08-08 15:19:00,79.3,51.4,29.96,West,265,5.0,15.0,38,0.00,,,-99.99,Weather View 32 v60,2013-08-08 22:19:00,
2013-08-08 15:29:00,79.0,51.1,29.96,SW,219,6.0,15.0,38,0.00,,,-99.99,Weather View 32 v60,2013-08-08 22:29:00,
2013-08-08 15:49:00,79.2,51.3,29.96,WSW,241,0.0,10.0,38,0.00,,,-99.99,Weather View 32 v60,2013-08-08 22:49:00,
2013-08-08 16:19:00,77.7,50.0,29.96,WNW,302,3.0,10.0,38,0.00,,,-99.99,Weather View 32 v60,2013-08-08 23:19:00,
2013-08-08 16:29:00,77.4,51.1,29.96,NW,309,0.0,12.0,40,0.00,,,-99.99,Weather View 32 v60,2013-08-08 23:29:00,
2013-08-08 16:39:00,77.7,50.0,29.96,SW,230,3.0,12.0,38,0.00,,,-99.99,Weather View 32 v60,2013-08-08 23:39:00,
2013-08-08 16:49:00,77.2,49.5,29.96,WNW,284,3.0,12.0,38,0.00,,,-99.99,Weather View 32 v60,2013-08-08 23:49:00,
2013-08-08 16:59:00,77.0,50.1,29.96,WSW,243,4.0,12.0,39,0.00,,,-99.99,Weather View 32 v60,2013-08-08 23:59:00,
2013-08-08 17:19:00,75.7,49.6,29.93,WSW,239,10.0,12.0,40,0.00,,,-99.99,Weather View 32 v60,2013-08-09 00:19:00,
2013-08-08 17:29:00,74.8,49.5,29.93,SW,216,6.0,13.0,41,0.00,,,-99.99,Weather View 32 v60,2013-08-09 00:29:00,
2013-08-08 17:39:00,74.1,49.5,29.93,NW,323,4.0,13.0,42,0.00,,,-99.99,Weather View 32 v60,2013-08-09 00:39:00,
2013-08-08 17:49:00,73.6,49.0,29.93,SW,232,0.0,13.0,42,0.00,,,-99.99,Weather View 32 v60,2013-08-09 00:49:00,
2013-08-08 17:59:00,72.9,49.0,29.93,NW,309,7.0,13.0,43,0.00,,,-99.99,Weather View 32 v60,2013-08-09 00:59:00,
2013-08-08 18:09:00,71.8,49.2,29.93,WSW,240,0.0,13.0,45,0.00,,,-99.99,Weather View 32 v60,2013-08-09 01:09:00,
2013-08-08 18:19:00,70.5,48.7,29.93,SSW,196,0.0,13.0,46,0.00,,,-99.99,Weather View 32 v60,2013-08-09 01:19:00,
2013-08-08 18:29:00,70.2,48.9,29.93,WNW,293,0.0,12.0,47,0.00,,,-99.99,Weather View 32 v60,2013-08-09 01:29:00,
2013-08-08 18:39:00,68.9,48.9,29.93,West,261,0.0,12.0,49,0.00,,,-99.99,Weather View 32 v60,2013-08-09 01:39:00,
2013-08-08 18:49:00,67.8,49.5,29.93,WNW,301,0.0,13.0,52,0.00,,,-99.99,Weather View 32 v60,2013-08-09 01:49:00,
2013-08-08 18:55:00,67.8,49.5,29.93,WNW,301,0.0,13.0,52,0.00,,,-99.99,Weather View 32 v60,2013-08-09 01:55:00,
2013-08-08 19:19:00,64.2,50.9,29.96,WSW,241,4.0,13.0,62,0.00,,,-99.99,Weather View 32 v60,2013-08-09 02:19:00,
2013-08-08 19:29:00,63.1,51.2,29.96,West,273,0.0,13.0,65,0.00,,,-99.99,Weather View 32 v60,2013-08-09 02:29:00,
2013-08-08 19:39:00,62.1,51.3,29.96,West,273,0.0,13.0,68,0.00,,,-99.99,Weather View 32 v60,2013-08-09 02:39:00,
2013-08-08 19:59:00,61.0,51.9,29.96,WNW,301,0.0,12.0,72,0.00,,,-99.99,Weather View 32 v60,2013-08-09 02:59:00,
2013-08-08 20:09:00,60.4,51.3,29.96,NNW,331,0.0,12.0,72,0.00,,,-99.99,Weather View 32 v60,2013-08-09 03:09:00,
2013-08-08 20:19:00,59.9,51.2,29.96,North,356,0.0,12.0,73,0.00,,,-99.99,Weather View 32 v60,2013-08-09 03:19:00,
2013-08-08 20:29:00,59.4,51.4,29.96,WNW,283,0.0,12.0,75,0.00,,,-99.99,Weather View 32 v60,2013-08-09 03:29:00,
2013-08-08 20:39:00,59.4,52.1,29.96,WNW,284,0.0,12.0,77,0.00,,,-99.99,Weather View 32 v60,2013-08-09 03:39:00,
2013-08-08 20:56:00,59.4,52.1,29.96,WSW,241,0.0,12.0,77,0.00,,,-99.99,Weather View 32 v60,2013-08-09 03:56:00,
2013-08-08 21:09:00,59.4,52.5,29.99,West,270,0.0,9.0,78,0.00,,,-99.99,Weather View 32 v60,2013-08-09 04:09:00,
2013-08-08 21:19:00,59.0,52.8,29.99,SSW,210,0.0,9.0,80,0.00,,,-99.99,Weather View 32 v60,2013-08-09 04:19:00,
2013-08-08 21:29:00,59.0,52.8,29.99,WSW,255,0.0,7.0,80,0.00,,,-99.99,Weather View 32 v60,2013-08-09 04:29:00,
2013-08-08 21:39:00,58.8,52.6,29.99,West,275,0.0,7.0,80,0.00,,,-99.99,Weather View 32 v60,2013-08-09 04:39:00,
2013-08-08 21:49:00,58.5,52.6,29.99,WNW,293,0.0,7.0,81,0.00,,,-99.99,Weather View 32 v60,2013-08-09 04:49:00,
2013-08-08 21:56:00,58.5,52.6,29.99,WNW,293,0.0,7.0,81,0.00,,,-99.99,Weather View 32 v60,2013-08-09 04:56:00,
2013-08-08 22:09:00,58.3,52.5,29.99,West,267,0.0,6.0,81,0.00,,,-99.99,Weather View 32 v60,2013-08-09 05:09:00,
2013-08-08 22:19:00,57.9,52.4,29.99,NW,309,0.0,3.0,82,0.00,,,-99.99,Weather View 32 v60,2013-08-09 05:19:00,
2013-08-08 22:29:00,57.7,52.3,29.99,West,266,0.0,3.0,82,0.00,,,-99.99,Weather View 32 v60,2013-08-09 05:29:00,
2013-08-08 22:39:00,57.7,52.6,29.99,NW,314,0.0,3.0,83,0.00,,,-99.99,Weather View 32 v60,2013-08-09 05:39:00,
2013-08-08 22:49:00,57.6,52.4,29.99,NW,305,0.0,3.0,83,0.00,,,-99.99,Weather View 32 v60,2013-08-09 05:49:00,
2013-08-08 22:57:00,57.6,52.4,29.99,NW,305,0.0,3.0,83,0.00,,,-99.99,Weather View 32 v60,2013-08-09 05:57:00,
2013-08-08 22:59:00,57.4,52.2,29.99,WSW,253,0.0,0.0,83,0.00,,,-99.99,Weather View 32 v60,2013-08-09 05:59:00,
2013-08-08 23:09:00,57.4,52.6,29.99,WSW,243,0.0,0.0,84,0.00,,,-99.99,Weather View 32 v60,2013-08-09 06:09:00,
2013-08-08 23:19:00,57.6,53.1,29.99,West,270,0.0,5.0,85,0.00,,,-99.99,Weather View 32 v60,2013-08-09 06:19:00,
2013-08-08 23:29:00,57.6,53.4,29.99,SW,227,0.0,6.0,86,0.00,,,-99.99,Weather View 32 v60,2013-08-09 06:29:00,
2013-08-08 23:39:00,57.7,54.2,29.99,WSW,239,0.0,6.0,88,0.00,,,-99.99,Weather View 32 v60,2013-08-09 06:39:00,
2013-08-08 23:49:00,57.9,54.7,29.99,WNW,284,0.0,6.0,89,0.00,,,-99.99,Weather View 32 v60,2013-08-09 06:49:00,
2013-08-08 23:57:00,57.9,54.7,29.99,WNW,284,0.0,6.0,89,0.00,,,-99.99,Weather View 32 v60,2013-08-09 06:57:00,